Weather in Bay-Dag

Russia / Tyva Republic     50°18′02″N   95°06′07″E
temp.,
°C
wind,
m/s
gust,
m/s
humid.,
%
clouds,
%
prec.,
mm/h
press.,
hPa
HPBL,
m
5 march, fri
fri501:00−18ese22780 0.0 103323
04:00−19ese33750 0.0 103330
07:00−19ese33720 0.0 103238
10:00−14se36711 0.0 1030186
13:00−8se356517 0.0 1028344
16:00−7s2481100 0.0 1025216
19:00−11wnw2384100 0.0 102823
22:00−12s2291100 0.1 103034
6 march, sat
sat601:00−17e119689 0.1 103320
04:00−18ese229319 0.0 103420
07:00−17ese227910 0.0 103520
10:00−12ese12740 0.0 103468
13:00−8s02720 0.0 1030278
16:00−7nw11840 0.0 1027123
19:00−15nw12950 0.0 102821
22:00−17nw011006 0.0 102820
7 march, sun
sun701:00−18ne019812 0.0 102720
04:00−19e01900 0.0 102620
07:00−19e11790 0.0 102820
10:00−13ene01720 0.0 102745
13:00−10nne016518 0.0 1026260
16:00−9nw228114 0.0 1025163
19:00−15w229145 0.0 102720
22:00−17ssw0098100 0.0 102920
8 march, mon
mon801:00−19nne0010065 0.0 103020
04:00−19e119912 0.0 103020
07:00−19ene11936 0.0 103220
10:00−13nnw11800 0.0 103036
13:00−10nw11740 0.0 1028209
16:00−9wnw228420 0.0 1025189
19:00−16wnw119610 0.0 102620
22:00−18wsw001000 0.0 102720
9 march, tue
tue901:00−18ne0010012 0.0 102620
04:00−19wnw11997 0.0 102620
07:00−18se019820 0.0 102920
10:00−13sw0083100 0.0 103091
13:00−9nw106998 0.0 1029223
16:00−8wnw117888 0.0 1028221
19:00−14nw019360 0.0 102921
22:00−16ene11916 0.0 103020